Theta_e
333 340 347 349 348 346 344 343 343 346 344 345 344 344 344 344 343 344 346 347 348 347 344 343 342 340 339 337 335 338 334 334 334 333 334 331 332 334 333 331 332 326 329
336 341 345 348 348 346 346 346 345 346 345 344 344 343 344 344 344 344 345 346 346 345 342 341 340 339 337 336 335 335 333 333 332 332 333 334 332 335 334 330 332 326 328
337 341 344 346 347 347 346 346 345 345 343 342 342 343 344 343 343 343 344 345 345 344 342 341 339 337 336 334 334 331 331 331 331 331 328 321 325 335 335 332 330 328 327
337 340 344 344 346 347 346 345 345 345 344 342 341 341 342 343 343 343 344 345 346 344 342 340 337 336 336 335 334 331 332 331 329 326 318 320 327 334 333 333 334 331 329
337 341 343 343 345 346 345 345 345 344 344 342 340 340 341 342 343 343 344 345 344 343 341 340 337 336 335 334 332 331 331 329 327 321 317 319 321 328 330 329 328 328 328
337 340 341 344 345 346 345 344 343 343 342 340 338 338 339 340 343 344 344 344 343 342 340 338 336 334 333 332 332 331 330 328 323 316 318 323 319 328 326 325 324 324 326
336 339 341 343 344 345 345 345 344 343 341 339 338 337 338 339 342 343 343 344 343 342 339 337 334 332 332 331 330 330 328 326 316 315 315 317 319 327 328 325 324 324 327
336 338 340 337 339 342 342 343 342 342 341 341 341 340 337 339 341 343 342 343 342 341 338 336 333 332 332 330 329 330 328 324 317 314 315 316 327 326 328 328 325 323 324
338 337 338 339 337 335 337 337 339 340 340 341 341 340 339 340 341 342 340 341 341 339 337 335 334 333 331 329 328 329 325 322 314 316 317 316 327 326 327 329 324 323 322
337 336 333 334 336 336 335 331 332 335 337 337 336 335 333 335 335 336 334 337 340 337 336 335 334 333 331 329 327 325 323 321 314 315 315 318 325 325 324 323 322 322 321
332 333 332 329 327 328 328 327 328 330 331 331 330 327 328 331 331 331 331 334 337 336 336 333 333 332 329 326 325 323 320 315 314 315 316 325 325 324 323 322 321 320 320
326 328 329 327 325 326 329 328 330 330 329 329 328 329 332 330 330 329 326 329 332 332 334 333 332 327 322 319 319 319 316 315 315 314 317 325 324 322 322 321 320 320 319
316 318 328 327 326 325 326 329 329 328 327 327 327 329 330 327 326 325 326 328 329 327 331 329 325 321 318 317 318 317 317 314 313 314 318 325 324 323 322 320 320 319 318
311 314 316 327 326 326 326 328 329 328 327 327 327 329 327 326 326 324 324 326 327 327 328 324 322 319 319 318 318 319 317 314 311 313 316 321 325 323 323 321 320 319 318
308 311 314 318 323 326 324 327 328 327 327 326 327 328 329 327 324 324 323 326 327 325 325 325 323 321 321 321 320 320 316 314 312 312 313 317 322 325 324 324 323 322 321
306 307 311 313 315 325 325 325 327 328 328 328 324 327 328 328 326 324 323 324 325 326 323 323 323 321 323 322 321 318 316 316 314 313 313 313 320 324 325 325 326 325 325
304 306 308 311 311 318 319 320 322 326 329 327 325 324 325 326 324 323 323 322 324 325 324 323 321 321 323 321 320 320 318 317 316 315 314 313 314 319 323 326 325 326 327
301 302 305 307 307 311 318 321 322 322 326 326 325 323 324 326 324 322 321 320 320 322 321 320 318 317 316 317 317 319 319 318 316 315 316 315 313 314 318 323 324 325 326
300 301 302 304 303 307 310 318 322 320 324 327 327 325 323 323 324 322 321 320 319 318 318 318 315 315 314 313 313 312 313 314 314 315 314 314 314 315 313 317 319 321 323
297 300 301 301 302 305 307 313 322 321 321 326 325 326 325 323 322 320 320 320 319 318 317 316 315 314 314 314 313 311 310 311 311 311 312 313 313 313 313 313 312 312 317
295 297 297 299 300 302 303 304 308 312 318 321 326 325 324 324 323 321 319 319 319 316 316 316 314 313 310 311 308 308 308 309 309 309 310 310 310 311 311 312 311 310 311
293 294 295 296 298 299 301 303 306 306 310 314 321 324 325 323 322 321 319 318 318 317 315 315 313 310 311 310 307 304 302 304 305 308 307 308 308 308 308 309 309 309 309
291 292 293 295 296 297 297 300 303 308 311 314 314 318 320 324 323 322 320 319 318 319 317 315 315 312 309 308 308 306 299 299 301 305 304 306 307 305 306 307 308 308 308
290 292 292 293 294 295 296 296 297 300 301 306 306 309 312 321 324 323 322 322 320 319 318 316 317 315 312 309 308 309 308 306 302 302 305 303 302 302 306 307 307 307 308
290 289 291 292 293 293 294 295 295 296 299 302 305 306 310 315 323 324 323 322 321 321 320 319 318 316 315 312 310 307 307 307 307 305 303 306 307 306 306 307 308 308 308
289 289 290 290 291 292 293 294 294 294 296 298 302 304 307 310 314 323 321 323 323 322 321 320 320 318 317 317 314 311 310 308 307 306 305 307 307 308 309 310 308 310 309
Wind_Speed
8 8 15 19 20 19 18 18 17 15 16 16 15 13 12 10 11 13 13 14 16 19 20 20 20 20 21 21 21 21 20 20 17 18 17 19 16 16 18 18 16 12 17
10 10 14 19 20 18 17 16 15 14 15 16 16 14 12 10 9 12 13 14 19 21 21 20 20 20 21 21 20 20 20 19 19 17 14 16 14 17 18 16 16 15 17
12 11 11 18 19 18 17 15 15 15 15 14 15 14 11 10 8 10 12 14 19 22 21 20 20 20 21 20 20 18 19 20 17 14 13 5 7 16 15 16 14 18 15
13 10 9 16 19 18 17 16 14 14 14 15 15 14 11 10 8 7 15 17 21 22 23 21 20 20 20 20 19 18 18 17 14 14 5 5 8 17 17 18 16 17 14
10 10 10 16 18 19 17 15 15 15 14 13 13 13 12 10 7 8 17 21 20 21 21 22 20 18 19 17 13 11 14 15 14 10 6 5 5 12 16 16 14 15 14
6 7 13 18 19 18 17 16 15 15 15 13 11 12 11 10 9 10 18 22 21 20 20 20 19 19 17 17 17 19 19 17 12 7 6 7 6 14 13 14 13 14 12
7 6 11 16 18 18 18 17 16 16 15 13 12 11 12 10 9 10 18 21 21 20 20 19 18 18 16 14 14 17 16 15 7 6 4 4 5 14 13 12 14 11 11
10 7 9 12 13 15 16 17 17 15 14 13 12 13 12 11 10 14 17 19 19 19 20 19 18 16 15 15 14 17 14 12 7 6 5 5 9 12 11 11 12 10 9
11 8 6 9 11 11 12 13 14 15 14 13 10 12 12 11 8 10 15 18 18 18 19 18 16 14 15 14 14 14 12 11 7 4 4 2 9 10 10 12 11 11 10
7 8 6 6 7 8 8 10 10 11 12 12 11 11 10 11 10 8 12 17 18 18 17 15 12 12 16 15 15 12 11 9 6 5 3 3 7 9 9 8 8 8 8
6 6 6 4 5 6 6 7 9 12 10 10 9 11 10 5 6 7 7 13 18 16 15 14 11 7 6 12 14 11 6 3 5 3 2 6 8 7 7 7 6 6 6
6 6 4 4 5 5 5 5 6 5 5 4 5 5 6 6 6 5 7 10 13 14 14 14 10 10 5 3 4 8 3 4 4 4 3 7 8 6 6 6 6 5 4
16 13 3 6 8 8 5 3 3 3 2 3 6 4 4 5 5 4 4 5 6 9 6 7 7 3 5 3 3 4 5 4 2 3 4 9 7 8 6 5 5 5 4
15 13 13 5 5 6 6 5 5 4 3 4 4 6 6 4 4 5 3 6 5 4 6 5 4 4 4 3 3 4 5 5 4 3 4 7 8 8 7 7 6 6 5
10 11 14 13 5 3 6 5 5 5 4 4 5 6 5 5 5 5 4 5 6 5 5 5 4 4 4 4 3 4 6 5 4 2 3 9 8 8 8 8 9 7 7
15 19 13 16 14 9 5 2 3 5 5 5 4 6 6 5 6 5 4 4 5 6 4 6 6 5 4 4 4 4 4 4 5 5 3 3 8 9 11 10 10 10 10
8 10 16 14 17 12 10 6 4 4 4 6 6 7 6 7 6 6 6 5 5 6 6 3 4 3 3 2 4 4 4 5 5 5 4 4 5 10 10 12 11 12 13
12 13 9 7 10 10 8 5 4 6 3 4 5 5 7 6 6 5 4 4 4 5 5 4 4 3 3 4 3 4 4 3 5 6 4 4 4 4 8 12 13 14 14
8 9 10 8 14 12 11 6 4 8 5 4 5 7 8 7 7 6 4 4 6 4 5 4 2 3 3 2 3 2 2 3 4 3 5 5 5 5 3 6 9 10 14
6 6 7 8 9 9 7 5 3 3 4 2 3 6 8 6 7 6 4 4 5 4 4 4 4 2 2 3 1 1 2 3 4 5 5 4 4 5 5 5 4 5 11
9 10 11 10 9 7 5 4 3 2 4 5 2 3 6 6 8 8 5 5 4 5 5 5 3 4 2 2 2 2 3 5 5 5 4 4 5 5 6 5 4 3 5
9 10 10 10 9 8 5 4 3 4 3 3 5 4 6 6 8 8 8 7 7 5 5 5 5 3 2 3 3 2 3 4 3 4 3 4 6 4 5 6 6 6 5
7 10 9 8 8 8 9 5 3 3 4 3 6 7 5 5 7 7 7 6 6 5 6 5 6 6 4 3 3 4 1 4 2 2 1 3 5 3 5 5 6 5 6
5 7 9 9 8 7 8 7 8 4 3 3 3 5 8 7 5 5 6 7 7 4 5 5 4 4 4 4 1 4 2 2 2 4 2 3 4 5 5 3 4 4 5
4 6 6 8 7 8 7 4 4 4 5 5 5 6 6 8 7 6 6 5 5 5 6 7 6 6 5 4 4 2 3 3 3 3 4 3 2 3 3 3 4 4 4
5 5 5 7 6 8 7 6 6 5 6 5 6 4 4 4 4 6 6 7 7 7 6 7 8 9 8 6 4 4 4 3 3 4 6 7 3 3 2 4 3 3 3
Wind_Direction
170 169 161 151 148 143 142 138 134 131 125 117 109 103 103 108 124 124 126 133 128 117 111 108 108 107 104 104 103 96 92 85 88 79 84 84 96 90 92 79 73 78 80
142 156 159 154 147 146 143 140 137 132 128 124 120 113 109 100 113 142 130 138 129 123 118 114 111 110 108 106 106 104 102 96 91 81 78 87 97 81 96 93 95 85 86
144 151 159 153 150 147 144 143 143 140 133 129 125 119 111 103 103 127 143 142 135 126 120 118 116 116 113 110 106 103 110 104 95 84 75 73 97 91 87 84 98 89 89
143 151 157 152 152 148 146 146 148 146 137 134 127 120 111 97 94 120 149 137 134 127 125 122 121 121 118 116 113 108 109 107 97 82 61 49 86 74 86 82 80 86 80
143 148 155 147 153 150 148 149 152 145 136 133 129 126 117 104 87 111 138 136 131 127 126 123 125 124 121 115 112 128 114 106 96 83 75 65 51 92 88 82 75 83 80
131 141 148 150 155 152 150 148 151 142 137 137 134 131 122 108 102 122 138 132 123 124 128 126 128 127 119 112 104 112 116 109 93 85 79 76 84 99 90 86 80 76 79
134 140 144 151 155 153 152 152 151 147 142 139 137 136 130 123 113 128 143 136 134 137 130 129 129 127 121 103 90 123 119 109 94 79 69 60 97 98 106 100 98 91 75
141 146 148 146 151 150 153 152 149 147 141 136 137 136 134 133 126 140 143 133 128 132 134 134 134 131 119 100 89 122 122 109 97 94 76 65 100 103 109 111 93 92 83
145 142 142 151 147 147 149 150 150 147 141 138 137 136 134 129 123 136 148 137 134 137 137 137 138 137 123 109 96 128 110 115 113 111 101 77 117 109 97 114 103 103 93
135 141 135 134 146 144 152 143 143 140 134 132 138 136 127 127 120 113 143 146 140 140 139 137 140 144 134 111 90 104 125 119 114 116 109 112 107 109 119 97 108 103 107
139 143 143 127 127 130 134 142 137 133 133 134 135 134 128 125 121 123 142 151 140 136 139 138 135 121 107 113 108 102 127 126 124 128 127 130 129 127 111 116 109 118 103
317 134 140 142 141 136 150 139 126 133 138 135 131 155 135 134 129 122 129 141 135 134 137 133 129 125 108 101 103 102 130 146 147 154 154 144 146 139 137 133 135 135 137
323 22 209 175 167 159 153 144 136 140 145 133 150 143 123 120 124 108 120 124 133 131 135 130 134 151 148 149 141 127 149 153 165 163 180 167 168 158 162 164 165 166 179
339 13 345 346 204 169 152 159 158 157 160 147 168 143 139 130 139 135 135 134 134 139 144 153 156 172 157 164 169 134 140 151 171 168 207 178 183 183 183 187 192 203 207
4 4 354 4 16 326 158 166 161 174 171 157 169 161 157 151 151 144 152 149 153 155 156 158 163 174 166 193 209 161 138 161 185 195 186 200 207 206 207 206 209 213 224
5 356 348 26 343 33 46 38 180 180 186 161 172 177 164 151 156 150 166 156 161 169 162 161 171 176 190 184 198 165 151 161 180 189 220 240 222 228 224 232 239 228 231
336 12 357 2 351 21 50 33 36 356 225 170 172 164 164 157 162 155 162 166 169 168 157 157 167 167 190 203 174 168 169 175 176 186 200 214 225 229 250 254 251 258 263
8 6 358 357 13 10 353 20 7 12 267 226 160 152 162 165 165 152 151 156 156 165 153 159 165 168 178 185 198 191 188 197 210 208 206 209 228 240 230 240 259 269 271
358 12 348 6 16 350 6 343 15 15 338 224 182 164 165 163 170 157 163 165 155 158 136 149 142 142 168 173 212 178 226 221 239 236 233 234 228 233 244 246 243 256 264
343 11 348 21 19 18 343 336 357 349 326 293 228 170 162 168 166 159 173 172 152 162 150 147 148 145 151 180 187 204 260 253 246 242 243 254 260 263 246 241 246 251 257
0 6 10 6 2 36 1 4 316 325 348 337 351 304 176 174 175 174 175 171 167 175 162 164 140 163 156 142 98 334 290 250 255 248 236 238 252 250 254 251 247 251 266
354 0 3 2 2 13 28 333 324 335 315 305 323 290 265 179 183 180 181 185 177 168 166 169 150 139 168 173 141 83 317 322 288 254 240 237 245 248 256 255 261 260 263
358 349 353 359 2 14 11 352 333 313 298 334 3 346 329 216 207 194 191 182 177 177 184 188 191 167 172 193 187 142 161 237 307 309 298 260 248 248 262 261 261 261 262
350 352 340 348 0 6 3 3 355 357 332 5 309 301 308 289 208 201 200 194 183 178 177 183 187 176 137 178 220 230 209 141 228 324 316 280 255 255 256 254 262 265 268
358 353 334 337 346 354 354 1 346 346 321 317 304 311 316 331 248 197 196 182 174 178 186 185 183 190 191 170 171 162 202 214 211 211 284 289 296 250 267 270 279 274 308
352 345 332 347 332 358 337 341 347 329 324 329 311 299 322 314 312 224 197 203 206 192 199 205 206 204 201 209 182 189 171 177 198 195 230 262 267 284 267 253 269 9 350